DW1970 Weather Reports


time (UTC)temp
C
wind
direction
speed
KPH
gust
KPH
rain 1hr
cm
rain 24hr
cm
rain mn
cm
humidity
%
barometer
mb
20260506123051 11 212 0.0 0.0 0.00 0.03 0.00 95 1020.0
20260506121547 11 212 0.0 0.0 0.00 0.03 0.00 95 1020.0
20260506120051 11 212 0.0 0.0 0.00 0.03 0.00 95 1019.8
20260506114551 11 212 0.0 0.0 0.00 0.03 0.00 95 1019.7
20260506113042 11 212 0.0 0.0 0.00 0.03 0.00 95 1019.7
20260506111541 11 212 0.0 0.0 0.00 0.03 0.00 95 1019.7
20260506110040 11 212 0.0 0.0 0.00 0.03 0.00 95 1019.4
20260506104543 11 212 0.0 0.0 0.00 0.03 0.00 95 1019.3
20260506103038 11 212 0.0 0.0 0.00 0.03 0.00 95 1019.3
20260506101537 11 212 0.0 0.0 0.00 0.03 0.00 95 1019.3
20260506100039 11 216 0.0 0.0 0.00 0.03 0.00 95 1019.1
20260506094536 11 236 0.0 0.0 0.00 0.03 0.00 95 1019.1
20260506093035 11 282 0.0 0.0 0.00 0.03 0.00 95 1019.1
20260506091534 11 335 0.0 0.0 0.00 0.03 0.00 95 1019.2
20260506090034 11 335 0.0 0.0 0.00 0.03 0.00 95 1019.2
20260506084539 11 335 0.0 0.0 0.00 0.03 0.00 95 1019.1
20260506083033 11 335 0.0 0.0 0.00 0.03 0.00 95 1019.2
20260506081533 11 335 0.0 0.0 0.00 0.03 0.00 95 1019.2
20260506073027 11 346 0.0 0.0 0.00 0.03 0.00 95 1019.0
20260506071527 11 346 0.0 0.0 0.00 0.03 0.00 95 1018.9
20260506061521 12 347 0.0 0.0 0.00 0.05 0.03 95 1018.5
20260506044526 12 341 0.0 3.2 0.00 0.05 0.03 94 1017.8
20260506043015 12 339 0.0 3.2 0.00 0.05 0.03 94 1017.7
20260506041514 12 342 0.0 0.0 0.00 0.05 0.03 94 1017.6
20260506040013 12 27 0.0 0.0 0.03 0.05 0.03 94 1017.5
20260506034510 12 8 0.0 0.0 0.03 0.05 0.03 94 1017.1
20260506033008 12 355 0.0 0.0 0.03 0.05 0.03 94 1017.0
20260506031516 12 356 0.0 0.0 0.03 0.05 0.03 94 1016.8
20260506030017 12 341 0.0 0.0 0.00 0.03 0.00 94 1016.6
20260506024519 12 352 0.0 0.0 0.00 0.05 0.00 94 1016.4
20260506023007 12 330 0.0 8.0 0.00 0.05 0.00 94 1016.3
20260506021505 12 346 0.0 0.0 0.00 0.05 0.00 94 1016.3
20260506020005 12 298 0.0 4.8 0.00 0.05 0.00 93 1016.3
20260506014503 12 312 0.0 12.9 0.00 0.05 0.00 93 1016.3
20260506013004 13 293 1.6 16.1 0.00 0.05 0.00 92 1016.3
20260506011504 13 303 0.0 19.3 0.00 0.05 0.00 92 1016.1
20260506010005 13 358 0.0 12.9 0.00 0.05 0.00 91 1016.2
20260506004505 13 321 0.0 16.1 0.00 0.13 0.00 91 1016.2
20260506003002 13 342 0.0 14.5 0.00 0.13 0.00 91 1016.3
20260506001502 13 327 0.0 16.1 0.00 0.13 0.00 90 1016.2
20260506000001 13 343 1.6 14.5 0.00 0.13 0.00 90 1016.1
20260505234602 13 17 8.0 19.3 0.00 0.20 0.00 90 1016.1
20260505233129 14 328 1.6 17.7 0.00 0.20 0.00 89 1016.1
20260505231600 13 360 1.6 19.3 0.00 0.20 0.00 88 1016.2
20260505230059 14 6 8.0 22.5 0.00 0.20 0.00 87 1016.3
20260505224557 15 341 4.8 19.3 0.00 0.25 0.00 87 1016.2
20260505223056 15 6 8.0 20.9 0.00 0.25 0.00 88 1016.4
20260505221602 15 335 0.0 16.1 0.00 0.25 0.00 89 1016.6
20260505220055 14 318 3.2 17.7 0.00 0.25 0.00 89 1016.5
20260505214554 14 333 4.8 17.7 0.00 0.25 0.00 88 1016.6
20260505213057 15 10 1.6 17.7 0.00 0.25 0.00 88 1016.6
20260505211553 15 13 0.0 9.7 0.00 0.25 0.00 89 1016.8
20260505210051 15 330 0.0 9.7 0.00 0.25 0.00 90 1016.7
20260505204550 15 346 0.0 14.5 0.00 0.25 0.00 92 1016.7
20260505203052 15 358 11.3 17.7 0.00 0.25 0.00 91 1016.7
20260505201550 14 348 0.0 16.1 0.00 0.25 0.00 93 1016.6
20260505200047 14 334 0.0 4.8 0.00 0.25 0.00 93 1016.7
20260505194549 14 2 0.0 3.2 0.00 0.25 0.00 95 1016.7
20260505193101 13 313 0.0 0.0 0.00 0.25 0.00 95 1016.7
20260505191542 13 350 0.0 3.2 0.00 0.25 0.00 96 1016.7
20260505190041 13 319 0.0 0.0 0.00 0.25 0.00 96 1016.8
20260505184536 12 331 0.0 3.2 0.00 0.28 0.00 96 1016.5
20260505183035 12 326 0.0 0.0 0.00 0.28 0.00 96 1016.6
20260505181535 12 328 0.0 9.7 0.00 0.28 0.00 96 1016.5
20260505180135 12 309 0.0 3.2 0.00 0.28 0.00 96 1016.3
20260505174531 12 339 0.0 0.0 0.00 0.28 0.00 97 1016.3
20260505173029 12 345 0.0 0.0 0.00 0.28 0.00 96 1016.1
20260505171529 12 323 0.0 0.0 0.00 0.28 0.00 96 1016.0
20260505170028 12 334 0.0 0.0 0.00 0.28 0.00 97 1016.1
20260505164526 12 329 0.0 0.0 0.00 0.28 0.00 97 1016.0
20260505163031 12 10 0.0 8.0 0.00 0.28 0.00 97 1015.9
20260505161524 12 3 0.0 14.5 0.00 0.28 0.00 96 1015.7
20260505153024 11 357 0.0 0.0 0.00 0.28 0.00 97 1015.5
20260505151520 11 13 0.0 0.0 0.00 0.28 0.00 97 1015.4
20260505124512 11 358 0.0 0.0 0.00 0.28 0.00 96 1014.7